Rockport, TX

9:19 AM CDT on March 28, 2017 (GMT -0500)
Aransas County

Weather History for KRKP - December, 2012

Change the Weather History Date:

Thursday, December 6, 2012

  Actual Average Record
Temperature  
Mean Temperature 64 °F -  
Max Temperature 72 °F 69 °F 81 °F (1987)
Min Temperature 55 °F 52 °F 34 °F (1992)
Degree Days  
Heating Degree Days 2    
Growing Degree Days 14 (Base 50)    
Moisture  
Dew Point 61 °F    
Average Humidity 93    
Maximum Humidity 100    
Minimum Humidity 68    
Precipitation  
Precipitation 0.00 in - - ()
Sea Level Pressure  
Sea Level Pressure 29.94 in    
Wind  
Wind Speed 4 mph (East)    
Max Wind Speed 10 mph    
Max Gust Speed -    
Visibility 4 miles    
Events Fog    
Averages and records for this station are not official NWS values.
T = Trace of Precipitation, MM = Missing Value Source: NWS Daily Summary

Daily Weather History Graph

Daily Weather History Graph

Search for Another Location

Airport or City:

Trip Planner

Search our weather history database for the weather conditions in past years. The results will help you decide how hot, cold, wet, or windy it might be!

Date:

Astronomy

Dec. 06, 2012 Rise Set
Actual Time 7:06 AM CST 5:32 PM CST
Civil Twilight 6:40 AM CST 5:58 PM CST
Nautical Twilight 6:11 AM CST 6:27 PM CST
Astronomical Twilight 5:43 AM CST 6:55 PM CST
Moon No Moon Rise 12:28 PM CST (12/6)
Length of Visible Light 11h 17m
Length of Day
10h 25m
Waning Gibbous, 49% of the Moon is Illuminated
Dec 6
Waning Gibbous
Dec 13
New
Dec 19
First Quarter
Dec 28
Full
Jan 4
Last Quarter

Hourly Weather History & Observations

Time (CST) Temp. Dew Point Humidity Pressure Visibility Wind Dir Wind Speed Gust Speed Precip Events Conditions
12:53 AM 63.0 °F 61.0 °F 93% 30.04 in 6.0 mi East 5.8 mph - N/A   Clear
1:53 AM 63.0 °F 61.0 °F 93% 30.01 in 7.0 mi East 3.5 mph - N/A   Clear
2:53 AM 62.1 °F 60.1 °F 93% 30.01 in 8.0 mi North - - N/A   Clear
3:53 AM 57.9 °F 57.0 °F 97% 29.99 in 5.0 mi Calm Calm - N/A   Clear
4:13 AM 57.2 °F 55.4 °F 94% 29.98 in 2.0 mi Calm Calm - N/A   Clear
4:20 AM 57.2 °F 55.4 °F 94% 29.98 in 1.5 mi NW 3.5 mph - N/A   Clear
4:23 AM 57.2 °F 55.4 °F 94% 29.98 in 0.8 mi NNW 3.5 mph - N/A   Mist
4:34 AM 57.2 °F 57.2 °F 100% 29.98 in 0.2 mi NW 3.5 mph - N/A Fog Fog
4:40 AM 57.2 °F 57.2 °F 100% 29.98 in 0.2 mi NNW 3.5 mph - N/A Fog Fog
4:48 AM 57.2 °F 57.2 °F 100% 29.97 in 0.2 mi North 3.5 mph - N/A Fog Fog
4:53 AM 55.9 °F 55.9 °F 100% 29.98 in 0.2 mi NNE 3.5 mph - N/A Fog Fog
5:53 AM 57.0 °F 57.0 °F 100% 29.98 in 0.2 mi Calm Calm - N/A Fog Fog
6:53 AM 55.0 °F 55.0 °F 100% 29.99 in 0.2 mi Calm Calm - N/A Fog Fog
7:53 AM 57.9 °F 57.0 °F 97% 30.00 in 0.2 mi North 4.6 mph - N/A Fog Fog
8:53 AM 60.1 °F 60.1 °F 100% 30.01 in 0.2 mi Calm Calm - N/A Fog Fog
9:53 AM 61.0 °F 61.0 °F 100% 30.01 in 0.2 mi NNW 4.6 mph - N/A Fog Fog
10:53 AM 63.0 °F 62.1 °F 97% 30.01 in 1.0 mi Calm Calm - N/A   Overcast
11:00 AM 62.6 °F 62.6 °F 100% 30.00 in 1.5 mi ENE 3.5 mph - N/A   Overcast
11:07 AM 64.4 °F 62.6 °F 94% 29.99 in 2.5 mi Variable 3.5 mph - N/A   Overcast
11:15 AM 64.4 °F 62.6 °F 94% 29.99 in 4.0 mi ENE 4.6 mph - N/A   Overcast
11:35 AM 64.4 °F 62.6 °F 94% 29.98 in 5.0 mi East 4.6 mph - N/A   Overcast
11:53 AM 66.0 °F 63.0 °F 90% 29.97 in 5.0 mi Calm Calm - N/A   Overcast
12:12 PM 68.0 °F 62.6 °F 83% 29.96 in 7.0 mi SE 4.6 mph - N/A   Mostly Cloudy
12:29 PM 69.8 °F 62.6 °F 78% 29.95 in 8.0 mi East 5.8 mph - N/A   Scattered Clouds
12:53 PM 69.1 °F 61.0 °F 75% 29.94 in 9.0 mi SE 3.5 mph - N/A   Partly Cloudy
1:53 PM 70.0 °F 62.1 °F 76% 29.91 in 9.0 mi ESE 5.8 mph - N/A   Clear
2:53 PM 72.0 °F 63.0 °F 73% 29.90 in 8.0 mi ESE 10.4 mph - N/A   Clear
3:53 PM 71.1 °F 60.1 °F 68% 29.88 in 10.0 mi SE 9.2 mph - N/A   Clear
4:53 PM 68.0 °F 61.0 °F 78% 29.88 in 10.0 mi SE 10.4 mph - N/A   Clear
5:53 PM 66.0 °F 63.0 °F 90% 29.88 in 8.0 mi ESE 10.4 mph - N/A   Clear
6:36 PM 64.4 °F 62.6 °F 94% 29.88 in 6.0 mi ESE 8.1 mph - N/A   Partly Cloudy
6:46 PM 64.4 °F 62.6 °F 94% 29.88 in 2.0 mi ESE 10.4 mph - N/A   Mostly Cloudy
6:49 PM 64.4 °F 64.4 °F 100% 29.88 in 1.8 mi ESE 9.2 mph - N/A   Mostly Cloudy
6:53 PM 64.9 °F 64.0 °F 97% 29.89 in 1.5 mi ESE 8.1 mph - N/A   Mostly Cloudy
7:12 PM 64.4 °F 64.4 °F 100% 29.88 in 0.8 mi SE 9.2 mph - N/A   Mist
7:53 PM 64.9 °F 64.9 °F 100% 29.88 in 0.5 mi SE 10.4 mph - N/A Fog Fog
8:33 PM 66.2 °F 64.4 °F 94% 29.88 in 1.2 mi SE 5.8 mph - N/A   Overcast
8:40 PM 66.2 °F 64.4 °F 94% 29.88 in 2.5 mi SE 6.9 mph - N/A   Mostly Cloudy
8:48 PM 66.2 °F 64.4 °F 94% 29.88 in 5.0 mi SE 5.8 mph - N/A   Mostly Cloudy
8:53 PM 66.0 °F 64.9 °F 96% 29.89 in 5.0 mi SE 5.8 mph - N/A   Scattered Clouds
9:53 PM 66.0 °F 64.9 °F 96% 29.89 in 8.0 mi Variable 3.5 mph - N/A   Clear
10:53 PM 66.9 °F 64.9 °F 93% 29.89 in 9.0 mi Calm Calm - N/A   Clear
11:53 PM 68.0 °F 64.9 °F 90% 29.88 in 10.0 mi South 5.8 mph - N/A   Clear